Latest Coastal Weather Observations for Esperance Harbour

IDW60701

Issued at 12:42 am WST Wednesday 4 March 2015 (issued every 10 minutes, with the page automatically refreshed every 10 minutes)

About coastal observations | Map of coastal stations | Coastal observations for WA | Marine services | Other Formats
Station Details ID: 109504 Name: ESPERANCE NTC AWS Lat: -33.87 Lon: 121.90 Height: 0.0 m
Data from the previous 72 hours. | See also: Recent months for locations in Western Australia
Date/Time
WST
Temp

°C
Wind Pressure Rain
since 9am
mm
Weather Cloud Vis
km
Sea
Height
m
Swell
Dir
 
Speed
knots
Gust
knots
hPa Trend Height
m
Period
s
Dir
04/12:30am 19.5 - - - 1023.2 - - - - - - - - -
04/12:00am 19.2 - - - 1023.3 - - - - - - - - -
 
Date/Time
WST
Temp

°C
Wind Pressure Rain
since 9am
mm
Weather Cloud Vis
km
Sea
Height
m
Swell
Dir
 
Speed
knots
Gust
knots
hPa Trend Height
m
Period
s
Dir
03/11:30pm 19.9 - - - 1023.2 - - - - - - - - -
03/11:00pm 19.8 - - - 1023.2 - - - - - - - - -
03/10:30pm 20.1 - - - 1023.4 - - - - - - - - -
03/10:00pm 20.1 - - - 1023.4 - - - - - - - - -
03/09:30pm 20.0 - - - 1023.4 - - - - - - - - -
03/09:00pm 20.1 - - - 1023.5 - - - - - - - - -
03/08:30pm 19.9 - - - 1023.4 - - - - - - - - -
03/08:00pm 20.0 - - - 1023.1 - - - - - - - - -
03/07:30pm 20.2 - - - 1022.8 - - - - - - - - -
03/07:00pm 20.1 - - - 1022.4 - - - - - - - - -
03/06:30pm 20.2 - - - 1022.0 - - - - - - - - -
03/06:00pm 20.4 - - - 1021.8 - - - - - - - - -
03/05:30pm 20.7 - - - 1021.8 - - - - - - - - -
03/05:00pm 20.9 - - - 1021.6 - - - - - - - - -
03/04:30pm 21.2 - - - 1021.7 - - - - - - - - -
03/04:00pm 21.1 - - - 1021.6 - - - - - - - - -
03/03:30pm 21.1 - - - 1021.5 - - - - - - - - -
03/03:00pm 21.1 - - - 1021.4 - - - - - - - - -
03/02:30pm 21.4 - - - 1021.6 - - - - - - - - -
03/02:00pm 21.1 - - - 1021.8 - - - - - - - - -
03/01:30pm 21.4 - - - 1021.9 - - - - - - - - -
03/01:00pm 21.3 - - - 1022.0 - - - - - - - - -
03/12:30pm 21.1 - - - 1022.0 - - - - - - - - -
03/12:00pm 21.2 - - - 1022.1 - - - - - - - - -
03/11:30am 21.2 - - - 1022.2 - - - - - - - - -
03/11:00am 21.1 - - - 1022.6 - - - - - - - - -
03/10:30am 20.9 - - - 1022.7 - - - - - - - - -
03/10:00am 21.1 - - - 1022.7 - - - - - - - - -
03/09:30am 21.0 - - - 1022.7 - - - - - - - - -
03/09:00am 20.8 - - - 1022.6 - - - - - - - - -
03/08:30am 20.1 - - - 1022.5 - - - - - - - - -
03/08:00am 19.5 - - - 1022.5 - - - - - - - - -
03/07:30am 19.0 - - - 1022.5 - - - - - - - - -
03/07:00am 18.5 - - - 1022.4 - - - - - - - - -
03/06:30am 18.5 - - - 1022.2 - - - - - - - - -
03/06:00am 18.6 - - - 1022.0 - - - - - - - - -
03/05:30am 18.9 - - - 1021.5 - - - - - - - - -
03/05:00am 18.8 - - - 1021.2 - - - - - - - - -
03/04:30am 18.8 - - - 1021.0 - - - - - - - - -
03/04:00am 18.5 - - - 1020.9 - - - - - - - - -
03/03:30am 18.3 - - - 1020.8 - - - - - - - - -
03/03:00am 18.4 - - - 1020.7 - - - - - - - - -
03/02:30am 18.6 - - - 1020.6 - - - - - - - - -
03/02:00am 18.8 - - - 1020.4 - - - - - - - - -
03/01:30am 18.9 - - - 1020.5 - - - - - - - - -
03/01:00am 18.9 - - - 1020.8 - - - - - - - - -
03/12:30am 19.2 - - - 1020.7 - - - - - - - - -
03/12:00am 19.1 - - - 1020.8 - - - - - - - - -
 
Date/Time
WST
Temp

°C
Wind Pressure Rain
since 9am
mm
Weather Cloud Vis
km
Sea
Height
m
Swell
Dir
 
Speed
knots
Gust
knots
hPa Trend Height
m
Period
s
Dir
02/11:30pm 19.1 - - - 1020.7 - - - - - - - - -
02/11:00pm 19.4 - - - 1020.7 - - - - - - - - -
02/10:30pm 19.7 - - - 1020.7 - - - - - - - - -
02/10:00pm 19.6 - - - 1020.7 - - - - - - - - -
02/09:30pm 19.6 - - - 1020.6 - - - - - - - - -
02/09:00pm 19.6 - - - 1020.3 - - - - - - - - -
02/08:30pm 19.6 - - - 1020.0 - - - - - - - - -
02/08:00pm 19.4 - - - 1019.4 - - - - - - - - -
02/07:30pm 19.4 - - - 1018.6 - - - - - - - - -
02/07:00pm 19.6 - - - 1018.1 - - - - - - - - -
02/06:30pm 20.3 - - - 1017.7 - - - - - - - - -
02/06:00pm 19.8 - - - 1017.5 - - - - - - - - -
02/05:30pm 20.1 - - - 1017.4 - - - - - - - - -
02/05:00pm 20.1 - - - 1017.4 - - - - - - - - -
02/04:30pm 20.1 - - - 1017.2 - - - - - - - - -
02/04:00pm 20.1 - - - 1016.8 - - - - - - - - -
02/03:30pm 20.7 - - - 1016.7 - - - - - - - - -
02/03:00pm 20.9 - - - 1016.5 - - - - - - - - -
02/02:30pm 20.6 - - - 1016.5 - - - - - - - - -
02/02:00pm 21.3 - - - 1016.7 - - - - - - - - -
02/01:30pm 21.4 - - - 1016.6 - - - - - - - - -
02/01:00pm 20.7 - - - 1016.7 - - - - - - - - -
02/12:30pm 20.6 - - - 1016.6 - - - - - - - - -
02/12:00pm 20.8 - - - 1016.6 - - - - - - - - -
02/11:30am 20.7 - - - 1017.1 - - - - - - - - -
02/11:00am 20.5 - - - 1017.3 - - - - - - - - -
02/10:30am 20.2 - - - 1017.1 - - - - - - - - -
02/10:00am 20.5 - - - 1017.1 - - - - - - - - -
02/09:30am 20.1 - - - 1017.1 - - - - - - - - -
02/09:00am 19.7 - - - 1017.0 - - - - - - - - -
02/08:30am 19.4 - - - 1016.9 - - - - - - - - -
02/08:00am 19.5 - - - 1016.3 - - - - - - - - -
02/07:30am 19.6 - - - 1016.1 - - - - - - - - -
02/07:00am 19.9 - - - 1015.7 - - - - - - - - -
02/06:30am 20.0 - - - 1015.5 - - - - - - - - -
02/06:00am 19.9 - - - 1015.1 - - - - - - - - -
02/05:30am 19.9 - - - 1015.0 - - - - - - - - -
02/05:00am 19.9 - - - 1014.7 - - - - - - - - -
02/04:30am 19.8 - - - 1014.5 - - - - - - - - -
02/04:00am 19.3 - - - 1014.0 - - - - - - - - -
02/03:30am 19.4 - - - 1014.0 - - - - - - - - -
02/03:00am 19.5 - - - 1013.9 - - - - - - - - -
02/02:30am 19.7 - - - 1013.7 - - - - - - - - -
02/02:00am 19.8 - - - 1013.6 - - - - - - - - -
02/01:30am 19.7 - - - 1013.3 - - - - - - - - -
02/01:00am 19.8 - - - 1013.7 - - - - - - - - -
02/12:30am 19.9 - - - 1013.7 - - - - - - - - -
02/12:00am 20.1 - - - 1013.7 - - - - - - - - -
 
Date/Time
WST
Temp

°C
Wind Pressure Rain
since 9am
mm
Weather Cloud Vis
km
Sea
Height
m
Swell
Dir
 
Speed
knots
Gust
knots
hPa Trend Height
m
Period
s
Dir
01/11:30pm 20.3 - - - 1013.5 - - - - - - - - -
01/11:00pm 20.4 - - - 1013.3 - - - - - - - - -
01/10:30pm 20.7 - - - 1013.3 - - - - - - - - -
01/10:00pm 20.8 - - - 1013.2 - - - - - - - - -
01/09:30pm 21.2 - - - 1013.1 - - - - - - - - -
01/09:00pm 21.8 - - - 1012.9 - - - - - - - - -
01/08:30pm 22.2 - - - 1012.3 - - - - - - - - -
01/08:00pm 22.5 - - - 1012.4 - - - - - - - - -
01/07:30pm 21.9 - - - 1011.8 - - - - - - - - -
01/07:00pm 21.5 - - - 1011.3 - - - - - - - - -
01/06:30pm 21.5 - - - 1011.4 - - - - - - - - -
01/06:00pm 21.7 - - - 1011.5 - - - - - - - - -
01/05:30pm 21.8 - - - 1011.3 - - - - - - - - -
01/05:00pm 21.8 - - - 1011.1 - - - - - - - - -
01/04:30pm 21.6 - - - 1010.9 - - - - - - - - -
01/04:00pm 22.0 - - - 1011.1 - - - - - - - - -
01/03:30pm 22.0 - - - 1011.1 - - - - - - - - -
01/03:00pm 22.4 - - - 1011.5 - - - - - - - - -
01/02:30pm 22.1 - - - 1011.7 - - - - - - - - -
01/02:00pm 22.1 - - - 1011.9 - - - - - - - - -
01/01:30pm 23.0 - - - 1012.3 - - - - - - - - -
01/01:00pm 23.3 - - - 1012.6 - - - - - - - - -
01/12:30pm 23.6 - - - 1013.2 - - - - - - - - -
01/12:00pm 23.4 - - - 1013.9 - - - - - - - - -
01/11:30am 22.6 - - - 1014.8 - - - - - - - - -
01/11:00am 22.2 - - - 1015.7 - - - - - - - - -
01/10:30am 21.8 - - - 1016.5 - - - - - - - - -
01/10:00am 20.9 - - - 1017.3 - - - - - - - - -
01/09:30am 19.6 - - - 1017.5 - - - - - - - - -
01/09:00am 19.3 - - - 1017.7 - - - - - - - - -
01/08:30am 18.2 - - - 1017.9 - - - - - - - - -
01/08:00am 17.6 - - - 1018.0 - - - - - - - - -
01/07:30am 17.1 - - - 1017.9 - - - - - - - - -
01/07:00am 16.2 - - - 1017.9 - - - - - - - - -
01/06:30am 16.5 - - - 1018.0 - - - - - - - - -
01/06:00am 16.7 - - - 1017.7 - - - - - - - - -
01/05:30am 17.3 - - - 1017.3 - - - - - - - - -
01/05:00am 17.0 - - - 1017.1 - - - - - - - - -
01/04:30am 17.1 - - - 1017.0 - - - - - - - - -
01/04:00am 17.0 - - - 1016.8 - - - - - - - - -
01/03:30am 17.0 - - - 1017.2 - - - - - - - - -
01/03:00am 17.1 - - - 1017.2 - - - - - - - - -
01/02:30am 17.0 - - - 1017.3 - - - - - - - - -
01/02:00am 17.3 - - - 1017.3 - - - - - - - - -
01/01:30am 17.3 - - - 1017.5 - - - - - - - - -
01/01:00am 17.5 - - - 1017.5 - - - - - - - - -

Other Formats:

Comma delimited format used in spreadsheet applications
http://www.bom.gov.au/fwo/IDW60701/IDW60701.95648.axf

JavaScript Object Notation format (JSON) in row-major order
http://www.bom.gov.au/fwo/IDW60701/IDW60701.95648.json